Regional Weather Roundup
Issued by NWS

Home | Current Version | Previous Version | Graphics & Text | Print | Product List | Glossary On
Versions: 1 2 3 4 5 6 7 8 9 10 11 12 13 14 15 16 17 18 19 20 21 22 23 24 25 26 27 28 29 30 31 32 33 34 35 36 37 38 39 40 41 42 43 44 45 46 47 48 49 50
000
ASUS45 KSLC 131610
RWRUT

UTAH REGIONAL WEATHER ROUNDUP
NATIONAL WEATHER SERVICE SALT LAKE CITY UT
900 AM MST SAT FEB 13 2016

UTZ001>011-023>025-131700-

NORTHERN UTAH

CITY           SKY/WX    TMP DP  RH WIND       PRES   REMARKS
BRIGHAM CITY   CLOUDY    27  25  93 CALM      30.34R
HILL AFB       CLOUDY    26  24  93 E5        30.30R FOG     WCI  20
LOGAN          CLOUDY    23  22  96 CALM      30.32R FOG
OGDEN          FOG       31  27  85 SE5       30.31R VSB 1/4 WCI  26
PROVO AIRPORT  FOG       23  21  93 CALM      30.33R VSB 1/4
SALT LAKE CITY FOG       29  28  96 N5        30.33R VSB 1/8 WCI  24
VERNAL         CLOUDY    23  20  88 CALM      30.27R FOG
WENDOVER       CLOUDY    28  25  86 SE3       30.34R
HEBER CITY     PTSUNNY   18  14  86 CALM      30.27R FOG
WEST JORDAN    CLOUDY    28  28 100 CALM      30.32R

$$

UTZ012>022-026-027-131700-

SOUTHERN/CENTRAL UTAH

CITY           SKY/WX    TMP DP  RH WIND       PRES   REMARKS
BLANDING       MOSUNNY   36  26  65 CALM      30.37S
BRYCE CANYON   MOSUNNY   11   4  73 SW5       30.33S WCI   3
CEDAR CITY     MOSUNNY   26  18  71 VRB7      30.26S WCI  18
DELTA          CLOUDY    16  14  95 E3        30.31S
HANKSVILLE     PTSUNNY   32  30  93 CALM      30.32S
MILFORD        FOG        9   7  92 S10       30.30R VSB 1/2 WCI  -5
MOAB/CYNLANDS  CLOUDY    32  29  88 CALM      30.28S
PRICE          MOSUNNY   30  23  75 CALM      30.27S
ST GEORGE      PTSUNNY   43  25  49 CALM      30.27S
KANAB          SUNNY     39  30  70 CALM      30.31R

$$

REGIONAL REPORTS     COLORADO/ARIZONA

CITY           SKY/WX    TMP DP  RH WIND       PRES   REMARKS
CRAIG, CO      CLOUDY     9   7  92 CALM      30.26S
GRAND JUNCTION CLOUDY    28  24  85 SE6       30.28F WCI  22
RIFLE          CLOUDY    22  16  78 E3        30.30F
MONTROSE       CLOUDY    30  23  75 SE5       30.31S WCI  25
CORTEZ         CLOUDY    36  23  59 CALM      30.30F
PAGE, AZ       SUNNY     41  31  67 NW3       30.28S
GRAND CANYON   SUNNY     38  23  55 CALM      30.32R
KINGMAN        SUNNY     50  23  34 CALM      30.20R
FLAGSTAFF      SUNNY     38  26  62 CALM      30.33R

$$

REGIONAL REPORTS    NEVADA/IDAHO/WYOMING

CITY           SKY/WX    TMP DP  RH WIND       PRES   REMARKS
LAS VEGAS, NV  MOSUNNY   53  25  33 S3        30.16R
ELY            CLOUDY    23  16  74 S17       30.32R WCI   9
ELKO           PTSUNNY   20  15  81 E7        30.35R WCI  11
POCATELLO, ID  CLOUDY    39  26  59 SW21G28   30.20R WCI  29
BURLEY         LGT RAIN  34  32  92 W9        30.26R WCI  27
EVANSTON, WY   CLOUDY    31  14  49 SW9       30.24R WCI  23
ROCK SPRINGS   CLOUDY    36  17  46 SW16      30.18F WCI  26
KEMMERER       CLOUDY    32  16  51 CALM      30.21

$$



USA.gov is the U.S. government's official web portal to all federal, state and local government web resources and services.